HISTORICAL SENSOR DATA

Sensor Data Report

DB LIVE
CURRENT TIME--:--:--
DEVICE NETWORK Gateway Status
13 ESP · realtime ~1s · history 60s
Weather WS-MOD-01
OFFLINE
Actuator ACT-MOD-01
OFFLINE
Mainboard L3 MB-L3-01
OFFLINE
Mainboard L5 MB-L5-01
OFFLINE
Remote AC AC-REMOTE-01
OFFLINE
PZEM L3-01 PWR-L3-01
OFFLINE
PZEM L3-02 PWR-L3-02
OFFLINE
PZEM L3-03 PWR-L3-03
OFFLINE
PZEM L3-04 PWR-L3-04
OFFLINE
PZEM L5-01 PWR-L5-01
OFFLINE
PZEM L5-02 PWR-L5-02
OFFLINE
PZEM L5-03 PWR-L5-03
OFFLINE
PZEM L5-04 PWR-L5-04
OFFLINE
REPORT FILTER

Periode & Sensor

DATABASE HISTORY
RESET
QUICK RANGE Hari ini 7 hari 30 hari
PERIODE04 Aug 2026sampai 02 Sep 2026
TOTAL DATA40,278sensor readings
MINIMUM-0.50sesuai filter
AVERAGE56.78sesuai filter
MAXIMUM998.00sesuai filter
REPORT RESULT

Data Sensor

04/08/2026 — 02/09/2026 EXPORT CSV
NOTANGGALWAKTUDEVICECHANNELSENSORVALUEUNIT
11401 02/09/2026 14:54:59 MB-L3-01Mainboard Lantai 3 L3-ST-02 Surface Temperature 2 30.20 °C
11402 02/09/2026 14:54:59 MB-L3-01Mainboard Lantai 3 L3-LUX-06 Illuminance / LUX 6 26.20 lux
11403 02/09/2026 14:54:59 MB-L3-01Mainboard Lantai 3 L3-AI-06 Analog Input 6 3.12 V
11404 02/09/2026 14:54:59 MB-L3-01Mainboard Lantai 3 L3-AI-01 Analog Input 1 3.12 V
11405 02/09/2026 14:54:59 MB-L3-01Mainboard Lantai 3 L3-HFT-01 Heat Flow Temperature 1 29.70 °C
11406 02/09/2026 14:54:59 MB-L3-01Mainboard Lantai 3 L3-LUX-05 Illuminance / LUX 5 17.30 lux
11407 02/09/2026 14:54:59 MB-L3-01Mainboard Lantai 3 L3-AI-02 Analog Input 2 3.12 V
11408 02/09/2026 14:54:59 MB-L3-01Mainboard Lantai 3 L3-LUX-04 Illuminance / LUX 4 39.70 lux
11409 02/09/2026 14:54:59 MB-L3-01Mainboard Lantai 3 L3-HFT-02 Heat Flow Temperature 2 29.20 °C
11410 02/09/2026 14:54:59 MB-L3-01Mainboard Lantai 3 L3-SHT-01-T SHT20 1 Temperature 32.10 °C
11411 02/09/2026 14:54:58 MB-L5-01Mainboard Lantai 5 L5-LUX-06 Illuminance / LUX 6 252.20 lux
11412 02/09/2026 14:54:58 MB-L5-01Mainboard Lantai 5 L5-ST-02 Surface Temperature 2 30.30 °C
11413 02/09/2026 14:54:58 MB-L5-01Mainboard Lantai 5 L5-LUX-02 Illuminance / LUX 2 191.60 lux
11414 02/09/2026 14:54:58 MB-L5-01Mainboard Lantai 5 L5-SHT-01-T SHT20 1 Temperature 32.20 °C
11415 02/09/2026 14:54:58 MB-L5-01Mainboard Lantai 5 L5-ST-01 Surface Temperature 1 29.90 °C
11416 02/09/2026 14:54:58 MB-L5-01Mainboard Lantai 5 L5-RAD-02 Radiation 2 1.00 W/m²
11417 02/09/2026 14:54:58 MB-L5-01Mainboard Lantai 5 L5-SHT-02-RH SHT20 2 Humidity 48.40 %RH
11418 02/09/2026 14:54:58 MB-L5-01Mainboard Lantai 5 L5-AI-06 Analog Input 6 3.05 V
11419 02/09/2026 14:54:58 MB-L5-01Mainboard Lantai 5 L5-LUX-04 Illuminance / LUX 4 258.90 lux
11420 02/09/2026 14:54:58 MB-L5-01Mainboard Lantai 5 L5-AI-05 Analog Input 5 3.05 V
11421 02/09/2026 14:54:58 MB-L5-01Mainboard Lantai 5 L5-SHT-03-T SHT20 3 Temperature 32.20 °C
11422 02/09/2026 14:54:58 MB-L5-01Mainboard Lantai 5 L5-LUX-05 Illuminance / LUX 5 498.70 lux
11423 02/09/2026 14:54:58 MB-L5-01Mainboard Lantai 5 L5-SHT-02-T SHT20 2 Temperature 32.30 °C
11424 02/09/2026 14:54:58 MB-L5-01Mainboard Lantai 5 L5-SHT-03-RH SHT20 3 Humidity 49.20 %RH
11425 02/09/2026 14:54:58 MB-L5-01Mainboard Lantai 5 L5-AI-04 Analog Input 4 3.05 V
11426 02/09/2026 14:54:58 MB-L5-01Mainboard Lantai 5 L5-RAD-01 Radiation 1 1.00 W/m²
11427 02/09/2026 14:54:58 MB-L5-01Mainboard Lantai 5 L5-AI-03 Analog Input 3 3.05 V
11428 02/09/2026 14:54:58 MB-L5-01Mainboard Lantai 5 L5-AI-02 Analog Input 2 3.05 V
11429 02/09/2026 14:54:58 MB-L5-01Mainboard Lantai 5 L5-AI-01 Analog Input 1 3.05 V
11430 02/09/2026 14:54:58 MB-L5-01Mainboard Lantai 5 L5-SHT-01-RH SHT20 1 Humidity 48.60 %RH
11431 02/09/2026 14:54:58 MB-L5-01Mainboard Lantai 5 L5-BGT-03 Black Globe Temperature 3 29.50 °C
11432 02/09/2026 14:54:58 MB-L5-01Mainboard Lantai 5 L5-BGT-02 Black Globe Temperature 2 29.50 °C
11433 02/09/2026 14:54:58 MB-L5-01Mainboard Lantai 5 L5-LUX-01 Illuminance / LUX 1 243.90 lux
11434 02/09/2026 14:54:58 MB-L5-01Mainboard Lantai 5 L5-LUX-03 Illuminance / LUX 3 180.30 lux
11435 02/09/2026 14:54:58 MB-L5-01Mainboard Lantai 5 L5-BGT-01 Black Globe Temperature 1 29.60 °C
11436 02/09/2026 14:54:58 MB-L5-01Mainboard Lantai 5 L5-HFT-02 Heat Flow Temperature 2 29.90 °C
11437 02/09/2026 14:54:58 MB-L5-01Mainboard Lantai 5 L5-HFT-01 Heat Flow Temperature 1 30.00 °C
11438 02/09/2026 14:54:57 MB-L3-01Mainboard Lantai 3 L3-AI-04 Analog Input 4 3.12 V
11439 02/09/2026 14:54:57 MB-L3-01Mainboard Lantai 3 L3-BGT-02 Black Globe Temperature 2 29.70 °C
11440 02/09/2026 14:54:57 MB-L3-01Mainboard Lantai 3 L3-RAD-01 Radiation 1 1.00 W/m²
11441 02/09/2026 14:54:57 MB-L3-01Mainboard Lantai 3 L3-ST-01 Surface Temperature 1 30.00 °C
11442 02/09/2026 14:54:57 MB-L3-01Mainboard Lantai 3 L3-AI-05 Analog Input 5 3.12 V
11443 02/09/2026 14:54:57 MB-L3-01Mainboard Lantai 3 L3-SHT-02-T SHT20 2 Temperature 32.10 °C
11444 02/09/2026 14:54:57 MB-L3-01Mainboard Lantai 3 L3-BGT-03 Black Globe Temperature 3 29.30 °C
11445 02/09/2026 14:54:57 MB-L3-01Mainboard Lantai 3 L3-ST-02 Surface Temperature 2 30.10 °C
11446 02/09/2026 14:54:57 MB-L3-01Mainboard Lantai 3 L3-LUX-06 Illuminance / LUX 6 33.40 lux
11447 02/09/2026 14:54:57 MB-L3-01Mainboard Lantai 3 L3-AI-06 Analog Input 6 3.12 V
11448 02/09/2026 14:54:57 MB-L3-01Mainboard Lantai 3 L3-AI-01 Analog Input 1 3.12 V
11449 02/09/2026 14:54:57 MB-L3-01Mainboard Lantai 3 L3-HFT-01 Heat Flow Temperature 1 29.60 °C
11450 02/09/2026 14:54:57 MB-L3-01Mainboard Lantai 3 L3-LUX-05 Illuminance / LUX 5 22.40 lux
11451 02/09/2026 14:54:57 MB-L3-01Mainboard Lantai 3 L3-AI-02 Analog Input 2 3.12 V
11452 02/09/2026 14:54:57 MB-L3-01Mainboard Lantai 3 L3-LUX-04 Illuminance / LUX 4 53.00 lux
11453 02/09/2026 14:54:57 MB-L3-01Mainboard Lantai 3 L3-HFT-02 Heat Flow Temperature 2 29.20 °C
11454 02/09/2026 14:54:57 MB-L3-01Mainboard Lantai 3 L3-SHT-01-T SHT20 1 Temperature 32.10 °C
11455 02/09/2026 14:54:57 MB-L3-01Mainboard Lantai 3 L3-LUX-02 Illuminance / LUX 2 27.90 lux
11456 02/09/2026 14:54:57 MB-L3-01Mainboard Lantai 3 L3-SHT-01-RH SHT20 1 Humidity 48.40 %RH
11457 02/09/2026 14:54:57 MB-L3-01Mainboard Lantai 3 L3-LUX-03 Illuminance / LUX 3 99.30 lux
11458 02/09/2026 14:54:57 MB-L3-01Mainboard Lantai 3 L3-AI-03 Analog Input 3 3.12 V
11459 02/09/2026 14:54:57 MB-L3-01Mainboard Lantai 3 L3-BGT-01 Black Globe Temperature 1 29.60 °C
11460 02/09/2026 14:54:57 MB-L3-01Mainboard Lantai 3 L3-SHT-02-RH SHT20 2 Humidity 48.30 %RH
11461 02/09/2026 14:54:57 MB-L3-01Mainboard Lantai 3 L3-LUX-01 Illuminance / LUX 1 15.00 lux
11462 02/09/2026 14:54:57 MB-L3-01Mainboard Lantai 3 L3-RAD-02 Radiation 2 1.00 W/m²
11463 02/09/2026 14:54:56 MB-L5-01Mainboard Lantai 5 L5-SHT-02-RH SHT20 2 Humidity 48.40 %RH
11464 02/09/2026 14:54:56 MB-L5-01Mainboard Lantai 5 L5-AI-06 Analog Input 6 3.05 V
11465 02/09/2026 14:54:56 MB-L5-01Mainboard Lantai 5 L5-LUX-04 Illuminance / LUX 4 290.80 lux
11466 02/09/2026 14:54:56 MB-L5-01Mainboard Lantai 5 L5-AI-05 Analog Input 5 3.05 V
11467 02/09/2026 14:54:56 MB-L5-01Mainboard Lantai 5 L5-SHT-03-T SHT20 3 Temperature 32.20 °C
11468 02/09/2026 14:54:56 MB-L5-01Mainboard Lantai 5 L5-LUX-05 Illuminance / LUX 5 516.50 lux
11469 02/09/2026 14:54:56 MB-L5-01Mainboard Lantai 5 L5-SHT-02-T SHT20 2 Temperature 32.10 °C
11470 02/09/2026 14:54:56 MB-L5-01Mainboard Lantai 5 L5-SHT-03-RH SHT20 3 Humidity 49.20 %RH
11471 02/09/2026 14:54:56 MB-L5-01Mainboard Lantai 5 L5-AI-04 Analog Input 4 3.05 V
11472 02/09/2026 14:54:56 MB-L5-01Mainboard Lantai 5 L5-RAD-01 Radiation 1 2.00 W/m²
11473 02/09/2026 14:54:56 MB-L5-01Mainboard Lantai 5 L5-AI-03 Analog Input 3 3.05 V
11474 02/09/2026 14:54:56 MB-L5-01Mainboard Lantai 5 L5-AI-02 Analog Input 2 3.05 V
11475 02/09/2026 14:54:56 MB-L5-01Mainboard Lantai 5 L5-AI-01 Analog Input 1 3.05 V
11476 02/09/2026 14:54:56 MB-L5-01Mainboard Lantai 5 L5-SHT-01-RH SHT20 1 Humidity 48.50 %RH
11477 02/09/2026 14:54:56 MB-L5-01Mainboard Lantai 5 L5-BGT-03 Black Globe Temperature 3 29.60 °C
11478 02/09/2026 14:54:56 MB-L5-01Mainboard Lantai 5 L5-BGT-02 Black Globe Temperature 2 29.60 °C
11479 02/09/2026 14:54:56 MB-L5-01Mainboard Lantai 5 L5-LUX-01 Illuminance / LUX 1 246.90 lux
11480 02/09/2026 14:54:56 MB-L5-01Mainboard Lantai 5 L5-LUX-03 Illuminance / LUX 3 187.60 lux
11481 02/09/2026 14:54:56 MB-L5-01Mainboard Lantai 5 L5-BGT-01 Black Globe Temperature 1 29.60 °C
11482 02/09/2026 14:54:56 MB-L5-01Mainboard Lantai 5 L5-HFT-02 Heat Flow Temperature 2 29.90 °C
11483 02/09/2026 14:54:56 MB-L5-01Mainboard Lantai 5 L5-HFT-01 Heat Flow Temperature 1 30.00 °C
11484 02/09/2026 14:54:56 MB-L5-01Mainboard Lantai 5 L5-LUX-06 Illuminance / LUX 6 279.50 lux
11485 02/09/2026 14:54:56 MB-L5-01Mainboard Lantai 5 L5-ST-02 Surface Temperature 2 30.30 °C
11486 02/09/2026 14:54:56 MB-L5-01Mainboard Lantai 5 L5-LUX-02 Illuminance / LUX 2 192.60 lux
11487 02/09/2026 14:54:56 MB-L5-01Mainboard Lantai 5 L5-SHT-01-T SHT20 1 Temperature 32.40 °C
11488 02/09/2026 14:54:56 MB-L5-01Mainboard Lantai 5 L5-ST-01 Surface Temperature 1 30.00 °C
11489 02/09/2026 14:54:56 MB-L5-01Mainboard Lantai 5 L5-RAD-02 Radiation 2 1.00 W/m²
11490 02/09/2026 14:54:55 MB-L3-01Mainboard Lantai 3 L3-AI-05 Analog Input 5 3.12 V
11491 02/09/2026 14:54:55 MB-L3-01Mainboard Lantai 3 L3-SHT-03-T SHT20 3 Temperature 31.70 °C
11492 02/09/2026 14:54:55 MB-L3-01Mainboard Lantai 3 L3-SHT-02-T SHT20 2 Temperature 32.10 °C
11493 02/09/2026 14:54:55 MB-L3-01Mainboard Lantai 3 L3-BGT-03 Black Globe Temperature 3 29.30 °C
11494 02/09/2026 14:54:55 MB-L3-01Mainboard Lantai 3 L3-ST-02 Surface Temperature 2 30.00 °C
11495 02/09/2026 14:54:55 MB-L3-01Mainboard Lantai 3 L3-LUX-06 Illuminance / LUX 6 29.70 lux
11496 02/09/2026 14:54:55 MB-L3-01Mainboard Lantai 3 L3-AI-06 Analog Input 6 3.12 V
11497 02/09/2026 14:54:55 MB-L3-01Mainboard Lantai 3 L3-AI-01 Analog Input 1 3.12 V
11498 02/09/2026 14:54:55 MB-L3-01Mainboard Lantai 3 L3-HFT-01 Heat Flow Temperature 1 29.60 °C
11499 02/09/2026 14:54:55 MB-L3-01Mainboard Lantai 3 L3-LUX-05 Illuminance / LUX 5 27.60 lux
11500 02/09/2026 14:54:55 MB-L3-01Mainboard Lantai 3 L3-AI-02 Analog Input 2 3.12 V
Menampilkan maksimal 100 data per halaman